Regional Weather Roundup
Issued by NWS

Home | Current Version | Previous Version | Text Only | Print | Product List | Glossary Off
Versions: 1 2 3 4 5 6 7 8 9 10 11 12 13 14 15 16 17 18 19 20 21 22 23 24 25 26 27

000
ASUS45 KBOU 290207
RWRCO

WEATHER ROUNDUP FOR COLORADO
NATIONAL WEATHER SERVICE DENVER/BOULDER CO
800 PM MDT THU APR 28 2016

NOTE: "FAIR" INDICATES FEW OR NO CLOUDS BELOW 12000 FEET WITH NO
SIGNIFICANT WEATHER AND/OR OBSTRUCTIONS TO VISIBILITY.

COZ001>005-013-030-031-290300-
...NORTHWEST COLORADO...

CITY           SKY/WX    TMP DP  RH WIND       PRES   REMARKS
CRAIG          FAIR      40  35  83 E3        29.88F
HAYDEN         FAIR      36  32  87 N5        29.88S
MEEKER         FAIR      41  34  76 NE5       29.86R
MOUNT WERNER   NOT AVBL
STEAMBOAT SPGS FAIR      35  33  92 W3        29.89R
WALDEN         FAIR      32  30  93 E3        29.93S
$$

COZ006>008-011-290300-
...WEST CENTRAL VALLEYS...

CITY           SKY/WX    TMP DP  RH WIND       PRES   REMARKS
GRAND JUNCTION MOCLDY    49  39  68 SW10      29.82R THUNDER
MONTROSE       MOCLDY    48  39  71 NW12      29.82R
EAGLE          FAIR      45  37  76 W3        29.88R
RIFLE          CLOUDY    49  36  61 NW6       29.81R
DELTA          NOT AVBL
NUCLA          NOT AVBL
$$

COZ017>023-064>068-290300-
...SOUTHWEST COLORADO...

CITY           SKY/WX    TMP DP  RH WIND       PRES   REMARKS
DURANGO        FAIR      48  24  39 W14       29.81R
CORTEZ         FAIR      45  34  65 E8        29.80S
PAGOSA SPRINGS CLOUDY    52   8  17 S9        29.82R
TELLURIDE      MOCLDY    35  32  90 W13       29.88R WCI  26
WOLF CREEK PAS NOT AVBL
$$

COZ009-010-012-014-032>034-037-058>063-290300-
...CENTRAL COLORADO...

CITY           SKY/WX    TMP DP  RH WIND       PRES   REMARKS
ASPEN          FAIR      40  32  73 NW3       29.86R
BUENA VISTA    LGT SNOW  32  31  96 CALM      29.96S VSB 3/4
COPPER MTN     NOT AVBL
BERTHOUD PASS  HAZE      18   9  68 MISG      30.00R VSB<1/4
COTTONWOOD PAS SNOW      32  30  93 CALM      29.97S VSB 1/4
GUNNISON       MOCLDY    43  28  56 S3        29.88R
KREMMLING      LGT RAIN  41  30  65 N6        29.90R
LEADVILLE      FOG       27  27 100 S15       29.94R VSB 1/2 WCI  15
MONARCH PASS   SNOW      23  19  86 E9G18     30.09R VSB<1/4 WCI  13
SALIDA         CLOUDY    35  32  89 E7        30.03R WCI  29
SUNLIGHT       LGT SNOW  32  32 100 CALM      29.97R
WILKERSON PASS SNOW      27  23  86 S7        30.03R VSB 1/4 WCI  19
$$

COZ069>075-290300-
...SAN LUIS VALLEY/SANGRE DE CRISTO MOUNTAINS...

CITY           SKY/WX    TMP DP  RH WIND       PRES   REMARKS
ALAMOSA        CLOUDY    44  31  60 NE10      29.85R
LA VETA PASS   LGT SNOW  27  25  93 MISG      29.99R
SAGUACHE       LGT RAIN  37  34  87 NE8       29.92R
$$

COZ035-036-038>040-290300-
...NORTHERN COLORADO FRONT RANGE...

CITY           SKY/WX    TMP DP  RH WIND       PRES   REMARKS
DENVER INTL AP CLOUDY    38  32  79 E10       30.01R
DMNS CITY PARK   N/A     40  34  80 N6        30.00S
AURORA         NOT AVBL
FRONT RANGE AP CLOUDY    37  34  87 E12       30.01R
ERIE MUNI ARPT DRIZZLE   38  36  92 NE5       30.02R
BOULDER MUN AP DRIZZLE   37  36  93 NE3       30.02R
CENTENNIAL     CLOUDY    38  34  85 NW6       30.00R
BROOMFIELD     DRIZZLE   37  36  93 N5        30.02R
FORT COLLINS   CLOUDY    37  34  87 E12       30.04R
LONGMONT       CLOUDY    40  37  87 E6        30.05R
$$

COZ041-046-047-076>085-087-088-290300-
...PIKES PEAK/PALMER DIVIDE AND SOUTHERN FOOTHILLS...

CITY           SKY/WX    TMP DP  RH WIND       PRES   REMARKS
COLO. SPRINGS  CLOUDY    37  33  85 CALM      30.00S
A. F. ACADEMY  NOT AVBL
SCHRIEVER AFB  NOT AVBL
ELLICOTT       NOT AVBL
FALCON         CLOUDY    35  32  90 CALM      30.00S
FORT CARSON    NOT AVBL
LIMON          CLOUDY    37  33  85 E13       30.01R
MONUMENT HILL  CLOUDY    34  30  86 S7        30.01R WCI  28
TRINIDAD       LGT RAIN  37  35  92 NW14      29.95R
$$

COZ042>045-048>051-090-091-290300-
...NORTHEAST COLORADO...

CITY           SKY/WX    TMP DP  RH WIND       PRES   REMARKS
GREELEY ARPT   CLOUDY    37  34  87 E7        30.05R
AKRON          CLOUDY    38  33  82 NE7       30.04R
BURLINGTON     CLOUDY    45  36  70 NE12      30.02R
WRAY           NOT AVBL
STERLING       CLOUDY    41  34  75 NE5       30.04S
HOLYOKE        NOT AVBL
FORT MORGAN    CLOUDY    39  34  82 NE6       30.05R
$$

COZ086-089-092>099-290300-
...SOUTHEAST COLORADO...

CITY           SKY/WX    TMP DP  RH WIND       PRES   REMARKS
PUEBLO         LGT RAIN  43  38  82 NW9       29.97S
LA JUNTA       MOCLDY    50  32  50 E13       29.95R
LAMAR          CLOUDY    51  34  52 E14       29.95R
SPRINGFIELD      N/A     49  35  58 NE22      29.92R
$$




USA.gov is the U.S. government's official web portal to all federal, state and local government web resources and services.